Location: Christchurch
(43.5330°S, 172.6330°E)
Time: 16:16:21
(UTC+13:00)

ISS - Pass Details

Date: 28 January 2019
Orbit: 403 x 411 km, 51.6° (Epoch: 17 February)

Event Time Altitude Azimuth Distance (km) Brightness Sun altitude
Exits shadow 05:31:08 - 351° (N) 1,881 -0.9 -8.9°
Reaches altitude 10° 05:32:25 10° 4° (N) 1,483 -1.3 -8.7°
Maximum altitude 05:34:40 17° 47° (NE) 1,131 -1.4 -8.4°
Drops below altitude 10° 05:36:54 10° 89° (E) 1,484 -0.1 -8.1°
Sets 05:39:32 0° 110° (ESE) 2,361 1.9 -7.7°
